Location: �mondeville
(49.4591°N, 1.3431°W)
Time: 07:06:52
(UTC+00:00)

ATLAS 3B R/B - Pass Details

Date: 22 October 2019
Orbit: 1029 x 1166 km, 63.8° (Epoch: 10 November)

Event Time Altitude Azimuth Distance (km) Brightness Sun altitude
Exits shadow 02:03:17 25° 79° (E) 1,955 4.4 -42.6°
Drops below altitude 10° 02:06:26 10° 98° (E) 2,876 5.3 -42.2°
Sets 02:09:19 0° 107° (ESE) 3,846 6.0 -41.9°
